Location: Anne Acres
(38.7004°N, 75.0827°W)
Time: 00:48:24
(UTC+00:00)

Altair - Pass Details

Date: 13 November 2024
Orbit: 1501 x 1683 km, 47.2° (Epoch: 03 December)

Event Time Altitude Azimuth Distance (km) Brightness Sun altitude
Rises 22:59:15 0° 296° (WNW) 4,645 10.9 -14.1°
Reaches altitude 10° 23:02:39 10° 287° (WNW) 3,672 10.5 -14.7°
Maximum altitude 23:10:26 32° 229° (SW) 2,413 9.1 -16.2°
Drops below altitude 10° 23:18:25 10° 171° (S) 3,759 9.5 -17.7°
Sets 23:21:59 0° 162° (SSE) 4,768 10.0 -18.4°
